Regional Weather Roundup
Issued by NWS Green Bay, WI

Home | Current Version | Previous Version | Graphics & Text | Print | Product List | Glossary Off
Versions: 1 2 3 4 5 6 7 8 9 10 11 12 13 14 15 16 17 18 19 20 21 22 23 24 25 26 27 28 29 30 31 32 33 34 35 36 37 38 39 40 41 42 43 44 45 46 47 48 49 50

000
ASUS43 KGRB 241911
RWRGRB

NORTH-CENTRAL AND NORTHEAST WISCONSIN REGIONAL WEATHER ROUNDUP
NATIONAL WEATHER SERVICE GREEN BAY WI
200 PM CDT FRI MAR 24 2017

WIZ005-009-010>012-018-019-242000-
NORTH CENTRAL WISCONSIN

CITY           SKY/WX    TMP DP  RH WIND       PRES   REMARKS
IRONWOOD       CLOUDY    35  34  96 N6        30.08R FOG
MANITOWISH WTR CLOUDY    33  33 100 NE3       30.04R FOG
ARBOR VITAE    CLOUDY    37  35  94 N9        30.03R FOG
EAGLE RIVER    CLOUDY    34  34 100 NE10      30.02R FOG
LAND O LAKES   FOG       33  33 100 N6        30.04S VSB 1
RHINELANDER    CLOUDY    36  35  96 NE6       30.01R FOG
PHILLIPS       CLOUDY    35  35  99 N8        30.03R
ANTIGO         LGT RAIN  35  35  98 NE6       30.01R
TOMAHAWK       LGT RAIN  36  33  92 N6        30.02R
MERRILL        RAIN      37  37  97 N6        30.02R
$$

WIZ013-073-242000-
NORTHEAST WISCONSIN

CITY           SKY/WX    TMP DP  RH WIND       PRES   REMARKS
IRON MOUNTAIN  CLOUDY    37  33  85 N8        30.01R FOG
MARINETTE        N/A    N/A N/A N/A MISG        N/A
OCONTO         CLOUDY    37  36  96 NE7       30.00F
$$

WIZ017-030-035>037-045-242000-
CENTRAL WISCONSIN

CITY           SKY/WX    TMP DP  RH WIND       PRES   REMARKS
MEDFORD        LGT RAIN  37  35  92 NE8       30.01R
WAUSAU         LGT RAIN  38  37  97 NE6       29.99R FOG
MOSINEE        LGT RAIN  37  37 100 N8        30.00R FOG
MARSHFIELD     RAIN      38  37  97 NE9       29.99R FOG
WISC RAPIDS    LGT RAIN  38  38 100 NE7       30.02R FOG
STEVENS POINT  LGT RAIN  35  35 100 NE6       30.00R
WAUPACA        LGT RAIN  39  37  91 N7        29.99R
SHAWANO        DRIZZLE   38  36  91 NE6       30.01R
CLINTONVILLE   LGT RAIN  36  36 100 NE8       30.00R
WAUTOMA        CLOUDY    39  36  89 N10       29.98R
$$

WIZ038-039-048-051-242000-
FOX VALLEY

CITY           SKY/WX    TMP DP  RH WIND       PRES   REMARKS
NWS GREEN BAY  MIX PCPN  37  37 100 NE14      29.99R FOG
APPLETON       CLOUDY    37  36  93 NE10      29.95S FOG
OSHKOSH        CLOUDY    41  35  79 NE16      29.96R
FOND DU LAC    CLOUDY    47  39  74 NE14      29.95R
$$

WIZ022-050-052-242000-
EAST CENTRAL WISCONSIN

CITY           SKY/WX    TMP DP  RH WIND       PRES   REMARKS
EPHRAIM        LGT RAIN  34  34 100 N8        30.00F
WASHINGTON ISL LGT RAIN  34  33  98 NE8       30.02S
STURGEON BAY   RAIN      35  34  96 N8        30.01F FOG
MANITOWOC      CLOUDY    42  34  73 NE10      29.98R
SHEBOYGAN      CLOUDY    45  38  76 NE17      29.96R
$$

LMZ563-521-522-541>543-242000-
LAKESHORE

STATION/POSITION TIME  TEMP    WIND        PRES    VSBY  WAVE
                       AIR SEA DIR/SP/G                  HT/PER
                 (UTC) (F)     (DEG/KT/KT) (MB)    (MI)  (FT/S)
SHEBOYGAN LKSHOR 1900   38      30/ 19/ 22 1015.2R
KEWAUNEE LKSHORE 1848   37      20/ 10/ 13 1015.2R
NORTHPORT PIER   1840   33     340/  7/  9 1016.6S
SISTER BAY LKSHO 1835   35      30/ 12/ 15   N/A
CHAMBERS ISLAND  1840   34      10/  9/ 10 1015.9F
MENOMINEE LKSHOR 1848   34      30/  5/  6 1015.9R
$$




USA.gov is the U.S. government's official web portal to all federal, state and local government web resources and services.